Simultaneous Nadir Overpasses (SNOs) Predictions

Prediction of SNOs between GOES-17 and TERRA Satellite Orbit:

Table of predicted SNOs for the next 14.0 days since TLE Epoch: 10/10/2025
Index Date Time (GOES-17) GOES-17 Lat,Lon TERRA Lat,Lon Distance(km) Time Diff (sec)
1 10/11/2025 02:52:42 -0.24, -89.47 0.57, -85.48 452.77 80
2 10/11/2025 15:14:47 0.26, -89.53 0.39, -90.21 76.47 80
3 10/13/2025 14:52:42 0.26, -89.53 -0.55, -85.53 454.11 80
4 10/14/2025 03:14:54 -0.27, -89.46 -0.43, -90.28 93.23 80
5 10/16/2025 02:52:49 -0.27, -89.47 0.54, -85.61 438.39 80
6 10/16/2025 15:14:54 0.28, -89.54 0.42, -90.34 90.45 80
7 10/18/2025 14:52:49 0.27, -89.55 -0.57, -85.66 442.31 80
8 10/19/2025 03:14:59 -0.28, -89.49 -0.46, -90.41 104.49 80
9 10/21/2025 02:52:54 -0.28, -89.50 0.49, -85.73 428.94 80
10 10/21/2025 15:14:58 0.29, -89.58 0.46, -90.46 99.64 80
11 10/23/2025 14:52:52 0.29, -89.60 -0.51, -85.78 434.19 80
12 10/24/2025 03:15:03 -0.30, -89.53 -0.50, -90.52 112.39 80
